User: anonymous   Login
Location: Unspecified
(0.0000°N, 0.0000°E)
Time: 14:32:55
(UTC+00:00)
Language:

SAUDISAT 3 - Orbit

View from above orbital plane
View from above orbital plane
View from above satellite
View from above satellite

Ground track
Ground track

The orbit data is extracted from the following two-line orbital elements,

1 31118U 07012B   24105.79968773  .00000695  00000-0  12374-3 0  9992
2 31118  98.0512  50.2222 0013824 228.6577 131.3441 14.70117150911127
Epoch (UTC): 14 April 2024 19:11:33
Eccentricity: 0.0013824
inclination: 98.0512°
perigee height: 651 km
apogee height: 670 km
right ascension of ascending node: 50.2222°
argument of perigee: 228.6577°
revolutions per day: 14.70117150
mean anomaly at epoch: 131.3441°
orbit number at epoch: 91112

The dashed part of the orbit path shows where the satellite is in the earth's shadow,  

DLR